Conditions Actuelle
Partiellement Nuageux



Pression
29.97 (inHG) - 1014.92 (mb)
Visibilité

10.0 (km) - 6.2 (miles)
   Température
11  °C
Température
10  °C
Point de Rosée
94  %
 Humidité
   Vitesse du Vent
3  km/h
2  kts
2  mph
0.9  m/s
   Direction du Vent
N
45°
E
90°
135°
S
180°
225°
O
270°
315°
Calme

Du Nord
   Données D'Aéroport
LFBU
Angoulême-Brie-Champniers Airport
Metar :LFBU 080530Z AUTO VRB02KT 9999 FEW042 SCT180 11/10 Q1015 NOSIG
08-05-2021 07:30
   Informations de métar brut
Le METAR brut est le format le plus courant au monde pour la transmission de données météorologiques d'observation. Il est hautement standardisé par l’Organisation de l’aviation civile internationale (OACI), ce qui lui permet d’être compris dans la plupart des pays du monde.
   API Information
Données fournies par
https://www.checkwx.com/weather/LFBU

Météo aéronautique fournissant des rapports météorologiques METAR, TAF, AIRMET, SIGMET et OUTLOOK
   © Info
CSS/SVG/PHP les scripts ont été développés pa weather34.com pour une utilisation dans le modèle weather34 © 2015-2021

Informations sur le guide fournies par Metar-Wikipedia